sat.trackr.live / text

‹ back to catalog

STARLINK-36601

NORAD 67618 · 2026-020B

PAYLOAD ACTIVE UNKNOWN

§ Identity

Operator
Country
US
Launch date
2026-01-30
Launch site
AFETR
Launch vehicle
Mass (kg)
RCS (m²)

Purposes: comms

External: N2YO · Heavens-Above · Gunter

§ Orbital elements

Epoch: 2026-09-18T23:32:30.967008Z

Period
94.27 min
Inclination
42.9996°
Eccentricity
0.0001576
Mean motion
15.27594067 rev/d
Perigee alt
481.9 km
Apogee alt
484.1 km
Semi-major
6,861.1 km
B*
6.3703e-4
RAAN
128.2799°
Arg perigee
282.7099°
Mean anomaly
77.3576°
Rev number
3,567

§ Raw data

STARLINK-366011 67618U 26020B   26261.98091397  .00017316  00000+0  63703-3 0  99902 67618  42.9996 128.2799 0001576 282.7099  77.3576 15.27594067 35675

JSON: /api/v1/satellites/67618 · /tle

For live sub-satellite position, see the globe view (requires WebGL).

§ Visibility from observer

Set your observer location to see the next 7 days of passes ≥ 10°. The values pass through the URL so the page stays shareable.

No JS? Fill the form by hand. The geolocation button needs JavaScript.